| time (UTC) | temp F | wind direction | speed MPH | gust MPH | rain 1hr in | rain 24hr in | rain mn in | humidity % | barometer mb |
| 20260906020059 | 68 | 15 | 8.0 | 12.0 | 0.00 | 0.00 | 0.00 | 66 | 1015.6 |
| 20260906014558 | 68 | 23 | 7.0 | 11.0 | 0.00 | 0.00 | 0.00 | 64 | 1015.6 |
| 20260906013053 | 68 | 24 | 8.0 | 12.0 | 0.00 | 0.00 | 0.00 | 65 | 1015.7 |
| 20260906011551 | 67 | 30 | 8.0 | 13.0 | 0.00 | 0.00 | 0.00 | 66 | 1015.6 |
| 20260906010056 | 67 | 25 | 8.0 | 12.0 | 0.00 | 0.00 | 0.00 | 65 | 1015.3 |
| 20260906004554 | 67 | 25 | 8.0 | 14.0 | 0.00 | 0.00 | 0.00 | 66 | 1015.1 |
| 20260906003048 | 67 | 24 | 8.0 | 14.0 | 0.00 | 0.00 | 0.00 | 66 | 1015.4 |
| 20260906001553 | 67 | 30 | 8.0 | 14.0 | 0.00 | 0.00 | 0.00 | 65 | 1015.4 |
| 20260906000046 | 67 | 30 | 7.0 | 13.0 | 0.00 | 0.00 | 0.00 | 67 | 1015.4 |
| 20260905234545 | 67 | 21 | 8.0 | 13.0 | 0.00 | 0.00 | 0.00 | 66 | 1015.3 |
| 20260905233045 | 68 | 25 | 8.0 | 15.0 | 0.00 | 0.00 | 0.00 | 67 | 1015.3 |
| 20260905231543 | 68 | 27 | 9.0 | 12.0 | 0.00 | 0.00 | 0.00 | 65 | 1015.3 |
| 20260905230040 | 68 | 29 | 7.0 | 13.0 | 0.00 | 0.00 | 0.00 | 65 | 1015.4 |
| 20260905224539 | 68 | 25 | 8.0 | 12.0 | 0.00 | 0.00 | 0.00 | 64 | 1015.3 |
| 20260905223043 | 68 | 35 | 6.0 | 11.0 | 0.00 | 0.00 | 0.00 | 66 | 1015.3 |
| 20260905221545 | 68 | 30 | 7.0 | 12.0 | 0.00 | 0.00 | 0.00 | 64 | 1015.3 |
| 20260905220035 | 68 | 30 | 6.0 | 13.0 | 0.00 | 0.00 | 0.00 | 66 | 1015.3 |
| 20260905214531 | 68 | 26 | 7.0 | 11.0 | 0.00 | 0.00 | 0.00 | 64 | 1015.2 |
| 20260905213034 | 68 | 28 | 8.0 | 10.0 | 0.00 | 0.00 | 0.00 | 65 | 1015.2 |
| 20260905211540 | 69 | 31 | 5.0 | 9.0 | 0.00 | 0.00 | 0.00 | 66 | 1015.2 |
| 20260905210028 | 68 | 29 | 8.0 | 11.0 | 0.00 | 0.00 | 0.00 | 65 | 1015.4 |
| 20260905204528 | 68 | 32 | 6.0 | 9.0 | 0.00 | 0.00 | 0.00 | 68 | 1015.3 |
| 20260905203031 | 68 | 30 | 6.0 | 11.0 | 0.00 | 0.00 | 0.00 | 70 | 1015.5 |
| 20260905201525 | 68 | 31 | 7.0 | 10.0 | 0.00 | 0.00 | 0.00 | 68 | 1015.4 |
| 20260905200033 | 68 | 32 | 5.0 | 9.0 | 0.00 | 0.00 | 0.00 | 67 | 1015.3 |
| 20260905194522 | 69 | 32 | 5.0 | 9.0 | 0.00 | 0.00 | 0.00 | 66 | 1015.2 |
| 20260905193022 | 69 | 32 | 4.0 | 10.0 | 0.00 | 0.00 | 0.00 | 67 | 1015.3 |
| 20260905191522 | 69 | 31 | 6.0 | 10.0 | 0.00 | 0.00 | 0.00 | 66 | 1015.4 |
| 20260905190021 | 69 | 30 | 7.0 | 10.0 | 0.00 | 0.00 | 0.00 | 67 | 1015.4 |
| 20260905184521 | 69 | 32 | 6.0 | 12.0 | 0.00 | 0.00 | 0.00 | 67 | 1015.4 |
| 20260905183018 | 69 | 29 | 6.0 | 9.0 | 0.00 | 0.00 | 0.00 | 69 | 1015.4 |
| 20260905181518 | 69 | 29 | 6.0 | 10.0 | 0.00 | 0.00 | 0.00 | 68 | 1015.3 |
| 20260905180016 | 69 | 30 | 5.0 | 10.0 | 0.00 | 0.00 | 0.00 | 68 | 1015.3 |
| 20260905174516 | 69 | 42 | 5.0 | 9.0 | 0.00 | 0.00 | 0.00 | 65 | 1015.2 |
| 20260905173014 | 69 | 31 | 5.0 | 10.0 | 0.00 | 0.00 | 0.00 | 68 | 1015.3 |
| 20260905171532 | 69 | 31 | 5.0 | 10.0 | 0.00 | 0.00 | 0.00 | 69 | 1015.2 |
| 20260905170013 | 69 | 36 | 5.0 | 10.0 | 0.00 | 0.00 | 0.00 | 68 | 1015.1 |
| 20260905164512 | 69 | 30 | 5.0 | 8.0 | 0.00 | 0.00 | 0.00 | 69 | 1015.0 |
| 20260905163010 | 69 | 28 | 5.0 | 9.0 | 0.00 | 0.00 | 0.00 | 69 | 1015.2 |
| 20260905161511 | 69 | 32 | 5.0 | 9.0 | 0.00 | 0.00 | 0.00 | 71 | 1015.1 |
| 20260905160023 | 68 | 34 | 5.0 | 9.0 | 0.00 | 0.00 | 0.00 | 72 | 1015.0 |
| 20260905154506 | 68 | 31 | 5.0 | 10.0 | 0.00 | 0.00 | 0.00 | 71 | 1015.0 |
| 20260905153007 | 68 | 32 | 6.0 | 9.0 | 0.00 | 0.00 | 0.00 | 72 | 1014.9 |
| 20260905151504 | 68 | 30 | 4.0 | 9.0 | 0.00 | 0.00 | 0.00 | 72 | 1014.9 |
| 20260905150003 | 68 | 32 | 6.0 | 9.0 | 0.00 | 0.00 | 0.00 | 72 | 1014.7 |
| 20260905144601 | 69 | 31 | 4.0 | 9.0 | 0.00 | 0.00 | 0.00 | 71 | 1014.7 |
| 20260905143059 | 69 | 32 | 5.0 | 8.0 | 0.00 | 0.00 | 0.00 | 71 | 1014.6 |
| 20260905141559 | 69 | 33 | 4.0 | 7.0 | 0.00 | 0.00 | 0.00 | 71 | 1014.4 |
| 20260905134558 | 69 | 33 | 4.0 | 7.0 | 0.00 | 0.00 | 0.00 | 70 | 1014.5 |
| 20260905133055 | 69 | 34 | 4.0 | 7.0 | 0.00 | 0.00 | 0.00 | 70 | 1014.4 |
| 20260905131556 | 68 | 29 | 4.0 | 7.0 | 0.00 | 0.00 | 0.00 | 71 | 1014.4 |
| 20260905130054 | 68 | 32 | 4.0 | 8.0 | 0.00 | 0.00 | 0.00 | 72 | 1014.3 |
| 20260905124553 | 68 | 34 | 4.0 | 7.0 | 0.00 | 0.00 | 0.00 | 72 | 1014.3 |
| 20260905123052 | 68 | 33 | 4.0 | 7.0 | 0.00 | 0.00 | 0.00 | 72 | 1014.3 |
| 20260905121550 | 68 | 31 | 4.0 | 6.0 | 0.00 | 0.00 | 0.00 | 72 | 1014.2 |
| 20260905120049 | 68 | 34 | 3.0 | 7.0 | 0.00 | 0.00 | 0.00 | 72 | 1014.2 |
| 20260905114602 | 67 | 33 | 2.0 | 5.0 | 0.00 | 0.00 | 0.00 | 72 | 1014.2 |
| 20260905113046 | 67 | 33 | 3.0 | 5.0 | 0.00 | 0.00 | 0.00 | 72 | 1014.1 |
| 20260905111547 | 67 | 30 | 3.0 | 6.0 | 0.00 | 0.00 | 0.00 | 72 | 1014.0 |
| 20260905110045 | 67 | 37 | 2.0 | 4.0 | 0.00 | 0.00 | 0.00 | 71 | 1013.9 |
| 20260905104548 | 67 | 34 | 2.0 | 5.0 | 0.00 | 0.00 | 0.00 | 72 | 1014.0 |
| 20260905103046 | 67 | 35 | 2.0 | 5.0 | 0.00 | 0.00 | 0.00 | 72 | 1014.0 |
| 20260905101543 | 67 | 41 | 1.0 | 3.0 | 0.00 | 0.00 | 0.00 | 71 | 1014.0 |
| 20260905100042 | 67 | 37 | 2.0 | 4.0 | 0.00 | 0.00 | 0.00 | 70 | 1013.9 |
| 20260905094557 | 68 | 33 | 2.0 | 5.0 | 0.00 | 0.00 | 0.00 | 70 | 1013.8 |
| 20260905093043 | 68 | 44 | 2.0 | 4.0 | 0.00 | 0.00 | 0.00 | 69 | 1013.8 |
| 20260905091540 | 68 | 45 | 2.0 | 4.0 | 0.00 | 0.00 | 0.00 | 69 | 1013.8 |
| 20260905090038 | 68 | 39 | 2.0 | 4.0 | 0.00 | 0.00 | 0.00 | 69 | 1013.8 |
| 20260905084541 | 68 | 35 | 3.0 | 6.0 | 0.00 | 0.00 | 0.00 | 68 | 1013.7 |
| 20260905083035 | 68 | 40 | 1.0 | 3.0 | 0.00 | 0.00 | 0.00 | 68 | 1013.6 |
| 20260905081535 | 68 | 44 | 0.0 | 3.0 | 0.00 | 0.00 | 0.00 | 67 | 1013.6 |
| 20260905080049 | 68 | 39 | 2.0 | 5.0 | 0.00 | 0.00 | 0.00 | 66 | 1013.3 |
| 20260905074533 | 68 | 32 | 3.0 | 5.0 | 0.00 | 0.00 | 0.00 | 67 | 1013.1 |
| 20260905073041 | 68 | 33 | 3.0 | 6.0 | 0.00 | 0.00 | 0.00 | 67 | 1013.2 |
| 20260905071531 | 68 | 32 | 3.0 | 6.0 | 0.00 | 0.00 | 0.00 | 68 | 1013.2 |
| 20260905070043 | 68 | 34 | 2.0 | 4.0 | 0.00 | 0.00 | 0.00 | 68 | 1013.2 |
| 20260905064530 | 68 | 38 | 3.0 | 5.0 | 0.00 | 0.00 | 0.00 | 68 | 1013.4 |
| 20260905063032 | 68 | 51 | 1.0 | 4.0 | 0.00 | 0.00 | 0.00 | 68 | 1013.5 |
| 20260905061547 | 68 | 41 | 1.0 | 5.0 | 0.00 | 0.00 | 0.00 | 68 | 1013.4 |
| 20260905060028 | 68 | 57 | 4.0 | 7.0 | 0.00 | 0.00 | 0.00 | 68 | 1013.2 |
| 20260905054527 | 68 | 30 | 3.0 | 7.0 | 0.00 | 0.00 | 0.00 | 67 | 1013.3 |
| 20260905053025 | 68 | 27 | 3.0 | 7.0 | 0.00 | 0.00 | 0.00 | 68 | 1013.3 |
| 20260905051532 | 68 | 32 | 4.0 | 6.0 | 0.00 | 0.00 | 0.00 | 67 | 1013.3 |
| 20260905050024 | 68 | 38 | 2.0 | 7.0 | 0.00 | 0.00 | 0.00 | 68 | 1013.3 |
| 20260905044525 | 68 | 32 | 4.0 | 6.0 | 0.00 | 0.00 | 0.00 | 71 | 1013.4 |
| 20260905043032 | 68 | 34 | 2.0 | 4.0 | 0.00 | 0.00 | 0.00 | 70 | 1013.4 |
| 20260905041519 | 68 | 38 | 2.0 | 4.0 | 0.00 | 0.00 | 0.00 | 69 | 1013.4 |
| 20260905040020 | 68 | 35 | 1.0 | 5.0 | 0.00 | 0.00 | 0.00 | 70 | 1013.7 |
| 20260905034520 | 68 | 46 | 0.0 | 2.0 | 0.00 | 0.00 | 0.00 | 69 | 1013.7 |
| 20260905033015 | 68 | 44 | 1.0 | 2.0 | 0.00 | 0.00 | 0.00 | 69 | 1013.7 |
| 20260905031515 | 68 | 47 | 0.0 | 4.0 | 0.00 | 0.00 | 0.00 | 68 | 1013.9 |
| 20260905030014 | 68 | 38 | 2.0 | 5.0 | 0.00 | 0.00 | 0.00 | 68 | 1013.9 |
| 20260905024513 | 68 | 30 | 2.0 | 5.0 | 0.00 | 0.00 | 0.00 | 68 | 1014.0 |
| 20260905023012 | 68 | 31 | 3.0 | 5.0 | 0.00 | 0.00 | 0.00 | 68 | 1014.0 |
| 20260905021513 | 68 | 31 | 2.0 | 5.0 | 0.00 | 0.00 | 0.00 | 69 | 1014.0 |